Starlink 33743

operational
NORAD ID: 63440 Int'l Des: 2025-069 Owner: SPXS Country: US Constellation: starlink
LEOCIRCULAR

Über Starlink 33743

Beschreibung wird geladen...

Live-Position

3D-Globus wird geladen...

Nächste Überflüge

Höhenverlauf

Altitude vs Time

uPlot chart will show altitude changes over time

Zweizeiliger Elementsatz

1 63440U 25069H 25352.63851460 .00021745 00000-0 74393-3 0 9997
2 63440 53.1585 159.0777 0001270 129.6348 230.4765 15.30209955 40881
Epoch: 18. Dez. 2025 • Age: 5 hours

Aktueller Status

Höhe 478.0 km
Geschwindigkeit 7.63 km/s
Subsatellitenpunkt 40.63°N, 98°W
Startdatum 4. Apr. 2025
Alter 0.7 years
Typ internet

Technische Details

Klassifizierung Payload
Masse 575.00 kg
Trockenmasse 530.00 kg
Gesamtmasse 575.00 kg
Länge 0.30 m
Durchmesser 4.10 m
Spannweite 29.00 m
Form Box + pan
Hersteller SPXS
Bus-Typ Starlink V2MO
Phasenstatus In Orbit
Besitzer/Staat SPXS/US

Große Konstellationen

Loading constellations...